CZ-4C DEB, 42672

Orbit data source: Space-Track

CZ-4C DEB, 42672 is space debris in SSO originally from a launch on Thu, 26 Nov 2015 UTC launched from the Taiyaun Space Center, China (TSC). Debris objects in space refer to the collection of defunct objects orbiting the Earth. Examples of debris include non-operational satellites, rocket bodies, and fragments generated from explosions, collisions, or faulty payload assembly.

Loading next visibility...
Identifier
42672, 2015-069E
Orbit
SSO
Country
Flag of CNCN / PRC
Related business
Manufacturer
Unknown
Mission
Spacecraft
Bus & Motor
Unknown
Mass
Unknown
Launch date (UTC)
2015-11-26 (10 years ago)
Launch vehicle
Unknown
Launch site
Taiyaun Space Center, China (TSC)
Object type
Payload
Rocket body
Debris
Shape & HBR
Unknown shape, 0.1 m
Radar Cross Section
Small (<0.1 m²)

Expand to show TLE details & history
Last TLE update: 11 hours ago

TLE from 11 hours ago
0 CZ-4C DEB
1 42672U 15069E   25309.19090293  .00020741  00000-0  17356-2 0  9992
2 42672  98.2691 280.6430 0085527 334.9090  24.7984 14.95643705525523
Epoch: 2025-11-05T04:34Z
TLE epoch observation values (Epoch: 2025-11-05T04:34:54.013Z)
Latitude
-0.00001°
Longitude
167.25083°
Altitude
529.46 km
Speed
7.628 km/s
True Right ascension
18h 42m 34s
True Declination
0° 00' 00"
Sunlit
Object was in daylight at epoch
Visualization orbit readout
Latitude
Unknown
Longitude
Unknown
Altitude
Unknown
Speed
Unknown
Apparent Right ascension
Unknown
Apparent Declination
Unknown
Sunlit
N/A
Visualization observer readout
Local Sidereal Time
11:29:48
Azimuth
Unknown
Elevation
Unknown
Doppler factor
Unknown
Orbital elements
Apogee altitude
636.901 km
Perigee altitude
517.923 km
Semi-major axis
6,955.549 km
Eccentricity
0.00855
Inclination
98.2691°
RAAN
280.643°
Arg. of periapsis
334.909°
True anomaly
25.21349°
Mean anomaly
24.7984°
Eccentric anomaly
25.00554°
Mean motion
3.7415 °/min
Orbital period
96.22 mins
BSTAR
0.0017356
Loading maneuver chart data...
Computing Atmospheric mass density...
Loading historical data...
Loading historical data...
Loading historical data...
Loading historical data...
Loading historical data...
Loading historical data...
Loading historical data...
Other satellites on launch #69 in the year 2015 (2015-11-26 UTC)

Documentation

Showing up to 5 results
|